Time,TemperatureF,DewpointF,PressureIn,WindDirection,WindDirectionDegrees,WindSpeedMPH,WindSpeedGustMPH,Humidity,HourlyPrecipIn,Conditions,Clouds,dailyrainin,SoftwareType,DateUTC
2013-03-28 00:02:00,41.0,41.0,29.99,SSE,158,0.0,0.0,100,0.00,,,0.00,,2013-03-28 07:02:00,
2013-03-28 00:12:00,41.0,41.0,29.99,SSE,158,0.0,0.0,100,0.00,,,0.00,,2013-03-28 07:12:00,
2013-03-28 00:21:00,41.0,41.0,30.00,SSE,158,0.0,0.0,100,0.00,,,0.00,,2013-03-28 07:21:00,
2013-03-28 00:32:00,41.0,41.0,30.00,SSE,158,0.0,0.0,100,0.00,,,0.00,,2013-03-28 07:32:00,
2013-03-28 00:42:00,41.0,41.0,30.00,SSE,158,0.0,0.0,100,0.00,,,0.00,,2013-03-28 07:42:00,
2013-03-28 00:51:00,40.0,40.0,29.99,SSE,158,0.0,0.0,100,0.00,,,0.00,,2013-03-28 07:51:00,
2013-03-28 01:02:00,39.0,39.0,30.00,SSE,158,0.0,0.0,100,0.00,,,0.00,,2013-03-28 08:02:00,
2013-03-28 01:11:00,39.0,39.0,30.00,SSE,158,0.0,0.0,100,0.00,,,0.00,,2013-03-28 08:11:00,
2013-03-28 01:21:00,39.0,39.0,30.00,SSE,158,0.0,0.0,100,0.00,,,0.00,,2013-03-28 08:21:00,
2013-03-28 01:32:00,40.0,40.0,30.00,SSE,158,0.0,0.0,100,0.00,,,0.00,,2013-03-28 08:32:00,
2013-03-28 01:41:00,40.0,40.0,30.00,SSE,158,0.0,0.0,100,0.00,,,0.00,,2013-03-28 08:41:00,
2013-03-28 01:52:00,40.0,40.0,30.00,SSE,158,0.0,0.0,100,0.00,,,0.00,,2013-03-28 08:52:00,
2013-03-28 02:01:00,38.0,38.0,30.00,SSE,158,0.0,0.0,100,0.00,,,0.00,,2013-03-28 09:01:00,
2013-03-28 02:11:00,38.0,38.0,30.00,SSE,158,0.0,0.0,100,0.00,,,0.00,,2013-03-28 09:11:00,
2013-03-28 02:21:00,37.0,37.0,30.00,SSE,158,0.0,0.0,100,0.00,,,0.00,,2013-03-28 09:21:00,
2013-03-28 02:32:00,37.0,37.0,30.00,SSE,158,0.0,0.0,100,0.00,,,0.00,,2013-03-28 09:32:00,
2013-03-28 02:42:00,38.0,38.0,30.00,SSE,158,0.0,0.0,100,0.00,,,0.00,,2013-03-28 09:42:00,
2013-03-28 02:52:00,38.0,38.0,30.00,SSE,158,0.0,0.0,100,0.00,,,0.00,,2013-03-28 09:52:00,
2013-03-28 03:02:00,39.0,39.0,30.00,SSE,158,0.0,0.0,100,0.00,,,0.00,,2013-03-28 10:02:00,
2013-03-28 03:12:00,39.0,39.0,30.00,SSE,158,0.0,0.0,100,0.00,,,0.00,,2013-03-28 10:12:00,
2013-03-28 03:22:00,38.0,38.0,30.00,SSE,158,0.0,0.0,100,0.00,,,0.00,,2013-03-28 10:22:00,
2013-03-28 03:32:00,38.0,38.0,30.00,SSE,158,0.0,0.0,100,0.00,,,0.00,,2013-03-28 10:32:00,
2013-03-28 03:41:00,38.0,38.0,30.00,SSE,158,0.0,0.0,100,0.00,,,0.00,,2013-03-28 10:41:00,
2013-03-28 03:52:00,38.0,38.0,30.00,SSE,158,0.0,0.0,100,0.00,,,0.00,,2013-03-28 10:52:00,
2013-03-28 04:02:00,36.0,36.0,30.01,SSE,158,0.0,0.0,100,0.00,,,0.00,,2013-03-28 11:02:00,
2013-03-28 04:11:00,36.0,36.0,30.01,SSE,158,0.0,0.0,100,0.00,,,0.00,,2013-03-28 11:11:00,
2013-03-28 04:22:00,37.0,37.0,30.01,SSE,158,0.0,0.0,100,0.00,,,0.00,,2013-03-28 11:22:00,
2013-03-28 04:32:00,37.0,37.0,30.01,SSE,158,0.0,0.0,100,0.00,,,0.00,,2013-03-28 11:32:00,
2013-03-28 04:42:00,37.0,37.0,30.01,SSE,158,0.0,0.0,100,0.00,,,0.00,,2013-03-28 11:42:00,
2013-03-28 04:52:00,37.0,37.0,30.01,SSE,158,0.0,0.0,100,0.00,,,0.00,,2013-03-28 11:52:00,
2013-03-28 05:01:00,37.0,37.0,30.01,SSE,158,0.0,0.0,100,0.00,,,0.00,,2013-03-28 12:01:00,
2013-03-28 05:11:00,37.0,37.0,30.01,SSE,158,0.0,0.0,100,0.00,,,0.00,,2013-03-28 12:11:00,
2013-03-28 05:22:00,37.0,37.0,30.01,SSE,158,0.0,0.0,100,0.00,,,0.00,,2013-03-28 12:22:00,
2013-03-28 05:31:00,34.0,34.0,30.02,SSE,158,0.0,0.0,100,0.00,,,0.00,,2013-03-28 12:31:00,
2013-03-28 05:42:00,34.0,34.0,30.02,SSE,158,0.0,0.0,100,0.00,,,0.00,,2013-03-28 12:42:00,
2013-03-28 05:51:00,35.0,35.0,30.01,SSE,158,0.0,0.0,100,0.00,,,0.00,,2013-03-28 12:51:00,
2013-03-28 06:02:00,35.0,35.0,30.03,SSE,158,0.0,0.0,100,0.00,,,0.00,,2013-03-28 13:02:00,
2013-03-28 06:11:00,35.0,35.0,30.03,SSE,158,0.0,0.0,100,0.00,,,0.00,,2013-03-28 13:11:00,
2013-03-28 06:21:00,34.0,34.0,30.03,SSE,158,0.0,0.0,100,0.00,,,0.00,,2013-03-28 13:21:00,
2013-03-28 06:32:00,34.0,34.0,30.03,SSE,158,0.0,0.0,100,0.00,,,0.00,,2013-03-28 13:32:00,
2013-03-28 06:41:00,34.0,34.0,30.03,SSE,158,0.0,0.0,100,0.00,,,0.00,,2013-03-28 13:41:00,
2013-03-28 06:51:00,36.0,36.0,30.03,SSE,158,0.0,0.0,100,0.00,,,0.00,,2013-03-28 13:51:00,
2013-03-28 07:02:00,36.0,36.0,30.03,SSE,158,0.0,0.0,100,0.00,,,0.00,,2013-03-28 14:02:00,
2013-03-28 07:12:00,36.0,36.0,30.03,SSE,158,0.0,0.0,100,0.00,,,0.00,,2013-03-28 14:12:00,
2013-03-28 07:21:00,36.0,36.0,30.03,SSE,158,0.0,0.0,100,0.00,,,0.00,,2013-03-28 14:21:00,
2013-03-28 07:32:00,38.0,38.0,30.04,SSE,158,0.0,0.0,100,0.00,,,0.00,,2013-03-28 14:32:00,
2013-03-28 07:42:00,38.0,38.0,30.04,SSE,158,0.0,0.0,100,0.00,,,0.00,,2013-03-28 14:42:00,
2013-03-28 07:51:00,37.0,37.0,30.04,East,90,5.0,6.0,100,0.00,,,0.00,,2013-03-28 14:51:00,
2013-03-28 08:01:00,37.0,37.0,30.04,ENE,68,2.0,3.0,100,0.00,,,0.00,,2013-03-28 15:01:00,
2013-03-28 08:11:00,37.0,37.0,30.04,ENE,68,2.0,3.0,100,0.00,,,0.00,,2013-03-28 15:11:00,
2013-03-28 08:21:00,37.0,37.0,30.05,ENE,68,0.0,0.0,100,0.00,,,0.00,,2013-03-28 15:21:00,
2013-03-28 08:32:00,39.0,39.0,30.04,ENE,68,0.0,0.0,100,0.00,,,0.00,,2013-03-28 15:32:00,
2013-03-28 08:42:00,39.0,39.0,30.04,ENE,68,0.0,0.0,100,0.00,,,0.00,,2013-03-28 15:42:00,
2013-03-28 08:52:00,40.0,40.0,30.05,East,90,6.0,7.0,100,0.00,,,0.00,,2013-03-28 15:52:00,
2013-03-28 09:02:00,42.0,42.0,30.05,East,90,3.0,6.0,100,0.00,,,0.00,,2013-03-28 16:02:00,
2013-03-28 09:12:00,42.0,42.0,30.05,East,90,3.0,6.0,100,0.00,,,0.00,,2013-03-28 16:12:00,
2013-03-28 09:22:00,44.0,44.0,30.06,East,90,6.0,8.0,100,0.00,,,0.00,,2013-03-28 16:22:00,
2013-03-28 09:32:00,45.0,45.0,30.06,East,90,5.0,7.0,100,0.00,,,0.00,,2013-03-28 16:32:00,
2013-03-28 09:41:00,45.0,45.0,30.06,East,90,5.0,7.0,100,0.00,,,0.00,,2013-03-28 16:41:00,
2013-03-28 09:51:00,47.0,47.0,30.06,East,90,6.0,7.0,100,0.00,,,0.00,,2013-03-28 16:51:00,
2013-03-28 10:02:00,48.0,48.0,30.06,East,90,2.0,5.0,100,0.00,,,0.00,,2013-03-28 17:02:00,
2013-03-28 10:12:00,48.0,48.0,30.06,East,90,2.0,5.0,100,0.00,,,0.00,,2013-03-28 17:12:00,
2013-03-28 10:21:00,49.0,49.0,30.06,SE,135,1.0,5.0,100,0.00,,,0.00,,2013-03-28 17:21:00,
2013-03-28 10:32:00,48.0,48.0,30.07,ESE,113,0.0,0.0,100,0.00,,,0.00,,2013-03-28 17:32:00,
2013-03-28 10:41:00,48.0,48.0,30.07,ESE,113,0.0,0.0,100,0.00,,,0.00,,2013-03-28 17:41:00,
2013-03-28 10:52:00,51.0,51.0,30.07,ESE,113,6.0,9.0,100,0.00,,,0.00,,2013-03-28 17:52:00,
2013-03-28 11:02:00,50.0,50.0,30.07,SSE,158,7.0,10.0,100,0.00,,,0.00,,2013-03-28 18:02:00,
2013-03-28 11:21:00,53.0,53.0,30.07,ENE,68,0.0,7.0,100,0.00,,,0.00,,2013-03-28 18:21:00,
2013-03-28 11:32:00,54.0,54.0,30.07,SSE,158,0.0,0.0,100,0.00,,,0.00,,2013-03-28 18:32:00,
2013-03-28 11:52:00,54.0,54.0,30.07,East,90,0.0,0.0,100,0.00,,,0.00,,2013-03-28 18:52:00,
2013-03-28 12:01:00,56.0,56.0,30.06,SE,135,0.0,0.0,100,0.00,,,0.00,,2013-03-28 19:01:00,
2013-03-28 12:22:00,55.0,55.0,30.06,ESE,113,0.0,0.0,100,0.00,,,0.00,,2013-03-28 19:22:00,
2013-03-28 12:32:00,57.0,57.0,30.06,SSW,203,0.0,0.0,100,0.00,,,0.00,,2013-03-28 19:32:00,
2013-03-28 12:52:00,57.0,57.0,30.06,SW,225,7.0,7.0,100,0.00,,,0.00,,2013-03-28 19:52:00,
2013-03-28 13:02:00,56.0,56.0,30.06,South,180,3.0,7.0,100,0.00,,,0.00,,2013-03-28 20:02:00,
2013-03-28 13:11:00,57.0,57.0,30.06,SW,225,5.0,5.0,100,0.00,,,0.00,,2013-03-28 20:11:00,
2013-03-28 13:21:00,57.0,57.0,30.06,SW,225,5.0,5.0,100,0.00,,,0.00,,2013-03-28 20:21:00,
2013-03-28 13:32:00,58.0,58.0,30.06,West,270,1.0,7.0,100,0.00,,,0.00,,2013-03-28 20:32:00,
2013-03-28 13:52:00,58.0,58.0,30.06,South,180,9.0,12.0,100,0.00,,,0.00,,2013-03-28 20:52:00,
2013-03-28 14:02:00,59.0,59.0,30.06,WSW,248,7.0,9.0,100,0.00,,,0.00,,2013-03-28 21:02:00,
2013-03-28 14:21:00,58.0,58.0,30.05,SSW,203,8.0,8.0,100,0.00,,,0.00,,2013-03-28 21:21:00,
2013-03-28 14:32:00,59.0,59.0,30.05,SSW,203,9.0,13.0,100,0.00,,,0.00,,2013-03-28 21:32:00,
2013-03-28 14:52:00,58.0,58.0,30.05,WNW,293,6.0,7.0,100,0.00,,,0.00,,2013-03-28 21:52:00,
2013-03-28 15:02:00,57.0,57.0,30.05,North,0,1.0,5.0,100,0.00,,,0.00,,2013-03-28 22:02:00,
2013-03-28 15:22:00,56.0,56.0,30.05,NNW,338,3.0,3.0,100,0.00,,,0.00,,2013-03-28 22:22:00,
2013-03-28 15:32:00,57.0,57.0,30.04,NNW,338,2.0,7.0,100,0.00,,,0.00,,2013-03-28 22:32:00,
2013-03-28 15:52:00,57.0,57.0,30.04,North,0,0.0,0.0,100,0.00,,,0.00,,2013-03-28 22:52:00,
2013-03-28 16:02:00,56.0,56.0,30.04,North,0,0.0,0.0,100,0.00,,,0.00,,2013-03-28 23:02:00,
2013-03-28 16:21:00,57.0,57.0,30.04,North,0,0.0,0.0,100,0.00,,,0.00,,2013-03-28 23:21:00,
2013-03-28 16:32:00,57.0,57.0,30.04,WSW,248,5.0,6.0,100,0.00,,,0.00,,2013-03-28 23:32:00,
2013-03-28 16:52:00,57.0,57.0,30.04,West,270,5.0,8.0,100,0.00,,,0.00,,2013-03-28 23:52:00,
2013-03-28 17:02:00,57.0,57.0,30.04,West,270,6.0,8.0,100,0.00,,,0.00,,2013-03-29 00:02:00,
2013-03-28 17:21:00,57.0,57.0,30.04,SW,225,6.0,7.0,100,0.00,,,0.00,,2013-03-29 00:21:00,
2013-03-28 17:32:00,56.0,56.0,30.04,SW,225,7.0,10.0,100,0.00,,,0.00,,2013-03-29 00:32:00,
2013-03-28 17:51:00,56.0,56.0,30.04,SW,225,5.0,9.0,100,0.00,,,0.00,,2013-03-29 00:51:00,
2013-03-28 18:02:00,56.0,56.0,30.04,SW,225,3.0,8.0,100,0.00,,,0.00,,2013-03-29 01:02:00,
2013-03-28 18:21:00,55.0,55.0,30.05,SW,225,5.0,9.0,100,0.00,,,0.00,,2013-03-29 01:21:00,
2013-03-28 18:32:00,54.0,54.0,30.05,SW,225,5.0,8.0,100,0.00,,,0.00,,2013-03-29 01:32:00,
2013-03-28 18:52:00,54.0,54.0,30.05,WSW,248,2.0,5.0,100,0.00,,,0.00,,2013-03-29 01:52:00,
2013-03-28 19:02:00,53.0,53.0,30.05,SW,225,1.0,5.0,100,0.00,,,0.00,,2013-03-29 02:02:00,
2013-03-28 19:21:00,53.0,53.0,30.05,SW,225,6.0,6.0,100,0.00,,,0.00,,2013-03-29 02:21:00,
2013-03-28 19:32:00,53.0,53.0,30.05,SW,225,0.0,0.0,100,0.00,,,0.00,,2013-03-29 02:32:00,
2013-03-28 19:52:00,52.0,52.0,30.05,SW,225,6.0,7.0,100,0.00,,,0.00,,2013-03-29 02:52:00,
2013-03-28 20:02:00,52.0,52.0,30.06,SW,225,0.0,0.0,100,0.00,,,0.00,,2013-03-29 03:02:00,
2013-03-28 20:21:00,52.0,52.0,30.06,SW,225,0.0,0.0,100,0.00,,,0.00,,2013-03-29 03:21:00,
2013-03-28 20:32:00,51.0,51.0,30.06,SW,225,0.0,0.0,100,0.00,,,0.00,,2013-03-29 03:32:00,
2013-03-28 20:52:00,50.0,50.0,30.07,West,270,0.0,2.0,100,0.00,,,0.00,,2013-03-29 03:52:00,
2013-03-28 21:02:00,50.0,50.0,30.07,West,270,1.0,6.0,100,0.00,,,0.00,,2013-03-29 04:02:00,
2013-03-28 21:22:00,49.0,49.0,30.07,West,270,3.0,5.0,100,0.00,,,0.00,,2013-03-29 04:22:00,
2013-03-28 21:32:00,49.0,49.0,30.07,West,270,3.0,6.0,100,0.00,,,0.00,,2013-03-29 04:32:00,
2013-03-28 21:52:00,49.0,49.0,30.08,West,270,3.0,7.0,100,0.00,,,0.00,,2013-03-29 04:52:00,
2013-03-28 22:02:00,48.0,48.0,30.08,SW,225,0.0,0.0,100,0.00,,,0.00,,2013-03-29 05:02:00,
2013-03-28 22:22:00,47.0,47.0,30.09,SW,225,0.0,0.0,100,0.00,,,0.00,,2013-03-29 05:22:00,
2013-03-28 22:32:00,47.0,47.0,30.09,SW,225,0.0,0.0,100,0.00,,,0.00,,2013-03-29 05:32:00,
2013-03-28 22:52:00,45.0,45.0,30.09,SW,225,0.0,0.0,100,0.00,,,0.00,,2013-03-29 05:52:00,
2013-03-28 23:02:00,45.0,45.0,30.09,SW,225,0.0,0.0,100,0.00,,,0.00,,2013-03-29 06:02:00,
2013-03-28 23:11:00,45.0,45.0,30.09,SW,225,0.0,0.0,100,0.00,,,0.00,,2013-03-29 06:11:00,
2013-03-28 23:22:00,44.0,44.0,30.09,SW,225,0.0,0.0,100,0.00,,,0.00,,2013-03-29 06:22:00,
2013-03-28 23:32:00,44.0,44.0,30.09,SW,225,0.0,0.0,100,0.00,,,0.00,,2013-03-29 06:32:00,
2013-03-28 23:41:00,44.0,44.0,30.09,SW,225,0.0,0.0,100,0.00,,,0.00,,2013-03-29 06:41:00,
2013-03-28 23:51:00,44.0,44.0,30.09,SW,225,0.0,0.0,100,0.00,,,0.00,,2013-03-29 06:51:00,